CW2613 Weather Reports


Display with metric or nautical units.
time (UTC)temp
F
wind
direction
speed
MPH
gust
MPH
rain 1hr
in
rain 24hr
in
rain mn
in
humidity
%
barometer
mb
20260904174511 89 193 0.0 0.0 0.00 0.00 0.00 60 1014.6
20260904173008 86 158 0.0 0.0 0.00 0.00 0.00 48 1014.6
20260904171605 84 173 0.0 0.0 0.00 0.00 0.00 41 1014.8
20260904170055 84 171 0.0 0.0 0.00 0.00 0.00 50 1015.0
20260904164551 84 195 0.0 0.0 0.00 0.00 0.00 53 1015.3
20260904163053 85 186 0.0 1.0 0.00 0.00 0.00 55 1015.3
20260904161542 90 288 1.0 10.0 0.00 0.00 0.00 60 1015.2
20260904160037 91 167 0.0 0.0 0.00 0.00 0.00 57 1015.0
20260904154532 91 155 0.0 1.0 0.00 0.00 0.00 59 1015.2
20260904153027 90 155 0.0 0.0 0.00 0.00 0.00 58 1015.2
20260904151521 90 203 0.0 0.0 0.00 0.00 0.00 55 1015.3
20260904150018 89 167 0.0 0.0 0.00 0.00 0.00 49 1015.2
20260904144512 88 219 0.0 0.0 0.00 0.00 0.00 46 1015.1
20260904143009 88 158 0.0 0.0 0.00 0.00 0.00 42 1015.0
20260904141503 87 200 0.0 1.0 0.00 0.00 0.00 38 1014.8
20260904134557 88 185 0.0 0.0 0.00 0.00 0.00 37 1014.6
20260904133050 87 77 0.0 0.0 0.00 0.00 0.00 31 1014.6
20260904131545 86 162 0.0 0.0 0.00 0.00 0.00 19 1014.4
20260904130041 84 165 0.0 0.0 0.00 0.00 0.00 1 1014.4
20260904124538 82 161 0.0 0.0 0.00 0.00 0.00 1 1014.3
20260904123032 80 174 0.0 0.0 0.00 0.00 0.00 1 1014.1
20260904121529 78 185 0.0 0.0 0.00 0.00 0.00 1 1014.1
20260904120027 77 185 0.0 0.0 0.00 0.00 0.00 1 1013.9
20260904114518 0 0.0 0.0 0.00 0.00 0.00 1013.8
20260904113014 0 0.0 0.0 0.00 0.00 0.00 1013.6
20260904111509 0 0.0 0.0 0.00 0.00 0.00 1013.5
20260904110005 0 0.0 0.0 0.00 0.00 0.00 1013.4
20260904104600 0 0.0 0.0 0.00 0.00 0.00 1013.2
20260904103101 0 0.0 0.0 0.00 0.00 0.00 1013.2
20260904101552 0 0.0 0.0 0.00 0.00 0.00 1013.0
20260904100047 0 0.0 0.0 0.00 0.00 0.00 1012.9
20260904094543 0 0.0 0.0 0.00 0.00 0.00 1012.8
20260904093055 0 0.0 0.0 0.00 0.00 0.00 1012.7
20260904091535 0 0.0 0.0 0.00 0.00 0.00 1012.6
20260904090029 0 0.0 0.0 0.00 0.00 0.00 1012.4
20260904084525 0 0.0 0.0 0.00 0.00 0.00 1012.5
20260904083021 0 0.0 0.0 0.00 0.00 0.00 1012.4
20260904081517 0 0.0 0.0 0.00 0.00 0.00 1012.4
20260904080012 0 0.0 0.0 0.00 0.00 0.00 1012.4
20260904074508 0 0.0 0.0 0.00 0.00 0.00 1012.2
20260904073015 0 0.0 0.0 0.00 0.00 0.00 1012.3
20260904071601 0 0.0 0.0 0.00 0.00 0.00 1012.3
20260904070057 0 0.0 0.0 0.00 0.00 0.00 1012.3
20260904064550 0 0.0 0.0 0.00 0.00 0.00 1012.5
20260904063050 0 0.0 0.0 0.00 0.00 0.00 1012.6
20260904061542 0 0.0 0.0 0.00 0.00 0.00 1012.7
20260904060037 0 0.0 0.0 0.00 0.00 0.00 1012.9
20260904054533 0 0.0 0.0 0.00 0.00 0.00 1013.1
20260904053031 0 0.0 0.0 0.00 0.00 0.00 1013.0
20260904051527 0 0.0 0.0 0.00 0.00 0.00 1012.9
20260904050020 0 0.0 0.0 0.00 0.00 0.00 1013.0
20260904044516 0 0.0 0.0 0.00 0.00 0.00 1013.2
20260904043011 77 182 0.0 0.0 0.00 0.00 0.00 1 1013.3
20260904041506 77 186 0.0 0.0 0.00 0.00 0.00 1 1013.3
20260904040002 78 186 0.0 0.0 0.00 0.00 0.00 1 1013.4
20260904034602 78 186 0.0 0.0 0.00 0.00 0.00 1 1013.5
20260904033104 78 186 0.0 0.0 0.00 0.00 0.00 1 1013.5
20260904031549 77 186 0.0 0.0 0.00 0.00 0.00 1 1013.3
20260904030044 78 186 0.0 0.0 0.00 0.00 0.00 1 1013.5
20260904024539 77 186 0.0 0.0 0.00 0.00 0.00 1 1013.4
20260904023038 77 186 0.0 0.0 0.00 0.00 0.00 1 1013.4
20260904021533 77 186 0.0 0.0 0.00 0.00 0.00 1 1013.6
20260904020027 77 186 0.0 0.0 0.00 0.00 0.00 1 1013.7
20260904014522 77 186 0.0 0.0 0.00 0.00 0.00 1 1013.8
20260904013019 77 186 0.0 0.0 0.00 0.00 0.00 1 1013.5
20260904011515 77 186 0.0 0.0 0.00 0.00 0.00 1 1013.3
20260904010009 76 186 0.0 0.0 0.00 0.00 0.00 1 1013.2
20260904004504 76 186 0.0 0.0 0.00 0.00 0.00 1 1013.0
20260904003111 76 186 0.0 0.0 0.00 0.00 0.00 1 1012.8
20260904001555 76 186 0.0 0.0 0.00 0.00 0.00 1 1012.8
20260904000051 76 186 0.0 0.0 0.00 0.00 0.00 1 1013.0
20260903234546 76 186 0.0 0.0 0.00 0.00 0.00 1 1012.7
20260903233042 76 184 0.0 0.0 0.00 0.00 0.00 1 1012.6
20260903231538 76 184 0.0 0.0 0.00 0.00 0.00 1 1012.5
20260903230047 76 184 0.0 0.0 0.00 0.00 0.00 1 1012.5
20260903224530 76 188 0.0 0.0 0.00 0.00 0.00 1 1012.5
20260903223026 76 188 0.0 0.0 0.00 0.00 0.00 1 1012.8
20260903221520 76 177 0.0 0.0 0.00 0.00 0.00 1 1012.7
20260903220015 75 176 0.0 0.0 0.00 0.00 0.00 1 1012.5
20260903214520 75 176 0.0 0.0 0.00 0.00 0.00 1 1012.2
20260903213006 75 188 0.0 0.0 0.00 0.00 0.00 1 1012.1
20260903211501 75 188 0.0 0.0 0.00 0.00 0.00 1 1011.9
20260903210100 76 175 0.0 0.0 0.00 0.00 0.00 1 1011.5
20260903204555 78 152 0.0 4.0 0.00 0.00 0.00 30 1012.6
20260903203048 81 196 0.0 2.0 0.00 0.00 0.00 44 1012.1
20260903201544 86 156 0.0 2.0 0.00 0.00 0.00 53 1012.4
20260903200043 87 189 0.0 0.0 0.00 0.00 0.00 32 1011.8
20260903194534 88 204 0.0 0.0 0.00 0.00 0.00 45 1012.3
20260903193029 88 110 0.0 1.0 0.00 0.00 0.00 46 1011.3
20260903191525 87 205 0.0 0.0 0.00 0.00 0.00 45 1011.8
20260903190023 88 180 0.0 0.0 0.00 0.00 0.00 49 1012.0
20260903184516 90 191 0.0 0.0 0.00 0.00 0.00 54 1012.5
20260903183011 89 179 0.0 0.0 0.00 0.00 0.00 52 1012.2
20260903181506 89 179 0.0 0.0 0.00 0.00 0.00 55 1012.0
20260903180005 88 181 0.0 0.0 0.00 0.00 0.00 52 1012.3